Date,TemperatureHighF,TemperatureAvgF,TemperatureLowF,DewpointHighF,DewpointAvgF,DewpointLowF,HumidityHigh,HumidityAvg,HumidityLow,PressureMaxIn,PressureMinIn,WindSpeedMaxMPH,WindSpeedAvgMPH,GustSpeedMaxMPH,PrecipitationSumIn
2013-11-1,48.2,44.3,38.7,35.5,18.8,9.9,83,38,22,29.00,28.67,22,6,22,0.00
2013-11-2,50.5,39.6,30.7,35.3,16.8,3.2,86,47,19,29.38,29.00,13,3,13,0.00
2013-11-3,57.2,39.5,25.0,31.3,11.3,4.4,76,37,17,29.53,29.38,12,3,12,0.00
2013-11-4,61.5,49.2,41.0,15.1,9.1,4.2,23,20,16,29.44,29.26,21,6,21,0.00
2013-11-5,54.5,51.9,49.5,43.8,25.0,12.2,71,37,20,29.47,29.15,20,4,20,0.16
2013-11-6,57.0,45.0,30.2,48.8,22.4,-2.0,76,44,20,29.41,29.03,23,8,23,0.71
2013-11-7,41.2,31.6,23.0,24.7,7.6,-1.0,78,39,21,29.47,29.41,14,3,14,0.20
2013-11-8,51.3,37.7,22.5,16.1,7.2,0.1,69,31,19,29.53,29.12,17,4,17,0.20
2013-11-9,60.1,47.9,37.4,14.9,7.8,1.0,23,19,17,29.38,29.06,25,9,25,0.20
2013-11-10,53.1,39.5,29.8,10.7,3.8,-1.0,32,22,18,29.56,29.38,15,4,15,0.20
2013-11-11,45.3,35.3,18.5,24.0,4.4,-9.4,68,28,20,29.74,29.29,16,5,16,0.20
2013-11-12,33.3,21.8,15.8,-3.6,-7.6,-12.2,35,27,20,29.91,29.74,15,5,15,0.20
2013-11-13,35.2,19.8,13.8,0.2,-6.3,-11.4,45,30,20,29.80,29.38,16,3,16,0.20
2013-11-14,48.2,39.8,36.1,7.9,3.0,0.8,22,21,19,29.18,29.15,10,4,10,0.00
2013-11-15,56.3,40.9,31.1,12.9,5.4,-2.5,34,23,17,29.21,29.12,15,5,15,0.00
2013-11-16,58.5,50.5,36.7,42.4,30.5,9.2,74,47,31,29.15,28.76,26,8,26,0.31
2013-11-17,69.8,55.1,39.9,54.4,30.0,6.1,82,42,19,29.00,28.44,28,10,28,0.83
2013-11-18,44.6,36.0,25.7,10.2,3.7,-2.7,37,25,20,29.47,29.00,28,10,28,0.83
2013-11-19,46.6,30.7,18.9,9.0,2.7,-5.3,54,31,19,29.56,29.47,11,2,11,0.83
2013-11-20,43.0,35.7,28.6,18.7,7.8,-1.0,45,32,20,29.47,29.29,15,5,15,0.16
2013-11-21,47.7,43.1,39.2,27.5,17.1,13.4,58,35,27,29.44,29.29,10,1,10,0.00
2013-11-22,41.0,32.9,21.6,19.2,6.0,-1.9,44,32,21,29.68,29.44,14,5,15,0.00
2013-11-23,24.6,18.6,10.6,-0.4,-11.9,-19.2,36,25,22,29.91,29.65,22,7,22,0.00
2013-11-24,30.4,16.6,5.5,-6.2,-15.0,-23.4,24,23,20,29.91,29.56,13,4,13,0.00
2013-11-25,32.2,26.9,17.4,8.0,-2.3,-14.2,41,28,21,29.56,29.26,17,6,17,0.00
2013-11-26,35.1,26.2,12.0,7.5,-3.2,-18.0,44,28,20,29.41,29.26,22,6,22,0.00
2013-11-27,29.5,17.3,8.8,-6.8,-14.4,-20.8,24,23,20,29.47,29.41,17,6,17,0.00
2013-11-28,34.7,22.9,12.9,-0.2,-8.5,-13.1,44,25,20,29.71,29.38,13,4,13,0.00
2013-11-29,39.4,25.7,8.8,3.2,-6.3,-13.3,44,25,20,29.80,29.56,13,3,13,0.00
2013-11-30,52.3,35.6,27.1,21.2,5.7,-7.4,71,31,18,29.56,29.26,15,3,15,0.00